Location: Carrières
(48.9495°N, 2.0407°E)
Time: 00:21:46
(UTC+00:00)

CZ-4B R/B - Pass Details

Date: 28 January 2023
Orbit: 809 x 881 km, 99.0° (Epoch: 21 March)

Event Time Altitude Azimuth Distance (km) Brightness Sun altitude
Rises 17:30:24 0° 128° (SE) 3,330 6.0 -8.1°
Reaches altitude 10° 17:33:00 10° 117° (ESE) 2,409 5.2 -8.5°
Maximum altitude 17:37:27 28° 60° (ENE) 1,505 4.0 -9.2°
Drops below altitude 10° 17:42:00 10° 3° (N) 2,455 5.4 -9.9°
Sets 17:44:40 0° 353° (N) 3,405 6.3 -10.4°
